レモン彗星

C/2022 V2 ( Lemmon )

English version
Home page
Updated on May 21, 2024

---------------------------------------------------------------------

・ プロフィール

発見日 2022年11月2日
発見光度 20.6等
発見者 Mt. Lemmon Survey

・ 写真集

・ 軌道要素

Epoch 2024 Mar. 31.0 TT = JDT 2460400.5
T 2023 Nov. 1.92682 TT                                  Rudenko
q   2.0636031            (2000.0)            P               Q
z  +0.0271624      Peri.  168.95058     -0.88700381     -0.10130561
 +/-0.0000003      Node   332.87030     +0.31108501     +0.58990918
e   0.9439477      Incl.   98.90290     +0.34124823     -0.80108947
>From 685 observations 2022 July 20-2024 Mar. 18, mean residual 0".4.

・ 星図

・ 光度変化

        m1 = 13.5 + 5 logΔ + 6.5 log r(t + 75)

---------------------------------------------------------------------

軌道要素はM.P.E.C. 2024-F34に掲載されたものです。
星図はステラナビゲータ Ver.11 (アストロアーツ) で作成したものです。
光度グラフはComet for Windowsで作成したものです。

---------------------------------------------------------------------

Copyright(C) Seiichi Yoshida (comet@aerith.net). All rights reserved.